Location: ??
(35.5052°N, 139.7262°E)
Time: 19:29:00
(UTC+00:00)

Cosmos 1932 - Pass Details

Date: 20 October 2021
Orbit: 943 x 987 km, 65.0° (Epoch: 01 December)

Event Time Altitude Azimuth Distance (km) Brightness Sun altitude
Rises 11:04:29 0° 332° (NNW) 3,617 8.0 -38.1°
Reaches altitude 10° 11:07:02 10° 334° (NNW) 2,672 7.2 -38.6°
Enters shadow 11:09:09 23° 337° (NNW) 1,916 6.3 -39.0°
